#timestamp,LO_Frequency,Hit 
1601276415.5,286047001.0,N
1601276435.3,286046998.6,N
1601276455.1,286047000.7,N
1601276475.9,286046999.2,N
1601276495.7,286046998.9,N
1601276515.5,286046998.6,N
1601276535.3,286047001.2,N
1601276555.2,286047001.2,N
1601276575.0,286046999.1,N
1601276575.9,286046999.1,N
1601276595.8,286046998.3,N
1601276615.6,286046999.4,N
1601276635.4,286046999.2,N
1601276655.2,286046999.0,N
1601276675.1,286046998.3,N
1601276676.0,286046998.3,N
1601276695.8,286046996.5,P
1601276715.7,286046998.6,N
1601276735.5,286047000.5,N
1601276755.3,286047000.9,N
1601276775.2,286047001.1,N
1601276795.9,286046999.0,N
1601276815.7,286047001.1,N
1601276835.5,286046999.1,N
1601276855.4,286046998.9,N
1601276875.2,286046998.1,N
1601276895.0,286046999.5,N
1601276896.0,286046999.5,N
1601276915.8,286046998.9,N
1601276935.6,286046998.5,N
1601276955.4,286047000.8,N
1601276975.3,286046999.6,N
1601276995.1,286046999.2,N
1601277015.8,286046998.5,N
1601277035.7,286046999.6,N
1601277055.5,286046998.9,N
1601277075.3,286046997.0,N
1601277095.2,286046997.0,N
1601277115.0,286046997.0,N
1601277115.9,286046997.0,N
1601277135.7,286046996.6,N
1601277155.6,286046996.7,N
1601277175.4,286046999.0,N
1601277195.2,286046996.6,N
1601277215.1,286046997.0,N
1601277216.0,286046997.0,N
1601277235.8,286046999.0,N
1601277255.6,286046996.8,N
1601277275.5,286046999.1,N
1601277295.3,286046998.7,N
1601277315.1,286046996.6,N
1601277335.9,286046999.4,N
1601277355.7,286046997.0,N
1601277375.5,286046996.9,N
1601277395.4,286046996.9,N
1601277415.2,286046997.0,N
1601277435.0,286046997.7,N
1601277435.9,286046997.7,N
1601277455.8,286046999.5,N
1601277475.6,286046999.2,N
1601277495.4,286046996.9,N
1601277515.3,286046997.7,N
1601277535.1,286046997.1,N
1601277555.8,286046999.5,N
1601277575.7,286046997.7,N
1601277595.5,286046997.9,N
1601277615.3,286046999.1,N
1601277635.2,286046997.2,N
1601277655.9,286046996.8,P
1601277675.7,286047001.1,N
1601277695.6,286046998.1,N
1601277715.4,286047001.2,N
1601277735.2,286047000.8,N
1601277755.1,286046998.6,N
1601277756.0,286046998.6,N
1601277775.8,286046998.7,N
1601277795.6,286046998.1,N
1601277815.5,286046998.8,N
1601277835.3,286047001.2,N
1601277855.1,286046999.3,N
1601277875.9,286046998.7,N
1601277895.7,286046998.3,N
1601277915.5,286046998.2,N
1601277935.4,286046999.6,N
1601277955.2,286046999.2,N
1601277975.0,286046998.6,N
1601277975.9,286046998.6,N
1601277995.8,286047001.1,N
1601278015.6,286046999.6,N
1601278035.4,286046999.1,N
1601278055.3,286046998.2,N
1601278075.1,286046999.0,N
1601278095.8,286047001.1,N
1601278115.7,286047001.1,N
1601278135.5,286047000.5,N
1601278155.3,286047000.4,N
1601278175.2,286047000.8,N
1601278195.9,286046998.1,N
1601278215.7,286047000.8,N
1601278235.6,286047002.4,N
1601278255.4,286047002.0,N
1601278275.2,286047002.8,N
1601278295.1,286047002.0,N
1601278296.0,286047002.0,N
1601278315.8,286047004.0,N
1601278335.6,286047005.6,P
1601278355.5,286047003.7,N
1601278375.3,286047005.5,N
1601278395.1,286047005.1,N
1601278415.9,286047007.5,P
1601278435.7,286047001.5,N
1601278455.5,286047003.5,N
1601278475.4,286047004.3,N
1601278495.2,286047004.0,N
1601278515.0,286047006.0,P
1601278516.0,286047006.0,P
1601278535.8,286046999.9,N
1601278555.6,286047002.8,N
1601278575.4,286047002.2,N
1601278595.3,286047002.9,N
1601278615.1,286047004.9,N
1601278635.9,286047007.4,P
1601278655.7,286047005.8,P
1601278675.5,286047007.3,P
1601278695.4,286047008.4,P
1601278715.2,286047003.2,N
1601278735.0,286047005.6,N
1601278735.9,286047005.6,P
1601278755.8,286047000.1,N
1601278775.6,286047001.6,N
1601278795.4,286047003.2,N
1601278815.3,286047004.5,N
1601278835.1,286047009.2,P
1601278855.8,286047005.4,N
1601278875.7,286047006.1,N
1601278895.5,286047007.8,P
1601278915.4,286047003.7,P
1601278935.2,286047007.5,P
1601278955.0,286047008.7,P
1601278955.9,286047008.7,P
1601278975.8,286047001.4,N
1601278995.6,286047003.1,N
1601279015.4,286047006.2,N
1601279035.3,286047008.5,P
1601279055.1,286047003.9,N
1601279075.8,286047005.5,N
1601279095.7,286047004.9,N
1601279115.5,286047006.5,P
1601279135.3,286047004.1,P
1601279155.2,286047003.2,P
1601279175.0,286047003.3,N
1601279175.9,286047003.3,N
1601279195.8,286047005.0,P
1601279215.6,286047002.8,P
1601279235.4,286047001.6,N
1601279255.3,286047001.8,N
1601279275.1,286047001.3,N
1601279276.0,286047001.3,N
1601279295.8,286047003.5,N
1601279315.7,286047005.6,P
1601279335.5,286047004.0,N
1601279355.3,286047001.7,N
1601279375.2,286047003.7,N
1601279395.9,286047005.7,P
1601279415.7,286047002.0,N
1601279435.6,286047004.3,N
1601279455.4,286047004.3,P
1601279475.2,286047001.0,P
1601279495.1,286047002.4,N
1601279496.0,286047002.4,N
1601279515.8,286047002.8,N
1601279535.7,286047003.4,P
1601279555.5,286047001.7,P
1601279575.3,286047001.4,N
1601279595.2,286047005.2,P
1601279615.9,286047005.9,P
1601279635.7,286047007.1,P
1601279655.6,286047006.2,P
1601279675.4,286047003.2,P
1601279695.2,286047007.1,P
1601279715.1,286047006.3,P
1601279716.0,286047006.3,P
1601279735.8,286047001.6,P
1601279755.6,286047005.8,N
1601279775.5,286047006.6,P
1601279795.3,286047003.7,P
1601279815.2,286047004.7,P
1601279835.9,286047006.5,P
1601279855.7,286047004.2,P
1601279875.6,286047005.5,P
1601279895.4,286047005.1,P
1601279915.2,286046999.8,N
1601279935.1,286047001.8,N
1601279936.0,286047001.8,N
1601279955.8,286047004.9,N
1601279975.6,286047004.5,N
1601279995.5,286047008.9,P
